QPF
0.02 0.02 0.03 0.02 0.03 0.04 0.04 0.04 0.02 0.03 0.05 0.04 0.04 0.04 0.03 0.03 0.04 0.04 0.04 0.04 0.06 0.06 0.06 0.07 0.09 0.11 0.13 0.13 0.18 0.23 0.21 0.20 0.22 0.25 0.24 0.22 0.20 0.15 0.11 0.10 0.08 0.05 0.04 0.03
0.02 0.02 0.01 0.01 0.02 0.03 0.04 0.03 0.02 0.04 0.05 0.04 0.03 0.03 0.02 0.02 0.02 0.02 0.03 0.03 0.03 0.05 0.06 0.07 0.08 0.08 0.10 0.12 0.16 0.18 0.18 0.19 0.18 0.19 0.20 0.21 0.23 0.24 0.21 0.18 0.13 0.08 0.05 0.03
0.02 0.02 0.01 0.02 0.03 0.03 0.03 0.03 0.02 0.03 0.05 0.05 0.03 0.03 0.02 0.01 0.02 0.01 0.02 0.02 0.02 0.03 0.04 0.06 0.06 0.06 0.06 0.08 0.11 0.12 0.15 0.17 0.17 0.17 0.20 0.21 0.22 0.22 0.19 0.16 0.14 0.11 0.09 0.08
0.02 0.02 0.02 0.04 0.04 0.03 0.02 0.02 0.02 0.02 0.04 0.06 0.05 0.04 0.02 0.01 0.01 0.01 0.01 0.02 0.01 0.01 0.03 0.04 0.05 0.05 0.05 0.06 0.08 0.09 0.11 0.11 0.12 0.13 0.15 0.15 0.14 0.13 0.11 0.11 0.10 0.11 0.12 0.12
0.03 0.02 0.02 0.03 0.04 0.03 0.02 0.02 0.02 0.02 0.04 0.04 0.04 0.03 0.02 0.01 0.01 0.01 0.01 0.01 0.01 0.01 0.01 0.02 0.03 0.04 0.04 0.05 0.06 0.08 0.08 0.08 0.08 0.11 0.14 0.18 0.17 0.13 0.12 0.13 0.14 0.13 0.12 0.12
0.02 0.02 0.02 0.02 0.02 0.03 0.01 0.02 0.03 0.03 0.05 0.05 0.02 0.02 0.02 0.01 0.01 0.00 0.00 0.01 0.01 0.01 0.01 0.01 0.02 0.03 0.03 0.04 0.04 0.06 0.08 0.08 0.09 0.10 0.12 0.13 0.14 0.14 0.13 0.13 0.14 0.13 0.11 0.10
0.03 0.02 0.02 0.01 0.02 0.02 0.02 0.03 0.05 0.07 0.07 0.04 0.01 0.01 0.01 0.01 0.00 0.00 0.00 0.01 0.01 0.00 0.00 0.00 0.01 0.01 0.02 0.03 0.04 0.05 0.06 0.06 0.06 0.07 0.09 0.10 0.12 0.12 0.11 0.09 0.08 0.09 0.08 0.08
0.03 0.03 0.03 0.02 0.03 0.03 0.03 0.03 0.03 0.04 0.04 0.03 0.01 0.01 0.01 0.00 0.00 0.01 0.00 0.00 0.01 0.01 0.00 0.00 0.00 0.01 0.01 0.02 0.02 0.03 0.03 0.04 0.04 0.05 0.06 0.08 0.10 0.11 0.10 0.09 0.07 0.05 0.04 0.05
0.03 0.02 0.02 0.02 0.03 0.04 0.04 0.02 0.02 0.04 0.03 0.03 0.02 0.01 0.00 0.00 0.00 0.01 0.00 0.00 0.00 0.01 0.00 0.00 0.00 0.01 0.01 0.01 0.01 0.01 0.01 0.02 0.02 0.03 0.04 0.05 0.06 0.06 0.06 0.06 0.06 0.06 0.06 0.05
0.03 0.02 0.02 0.02 0.03 0.03 0.03 0.03 0.03 0.04 0.04 0.03 0.01 0.00 0.00 0.01 0.00 0.01 0.00 0.00 0.00 0.01 0.01 0.00 0.00 0.00 0.00 0.01 0.01 0.01 0.01 0.01 0.02 0.02 0.02 0.03 0.04 0.05 0.05 0.06 0.06 0.06 0.06 0.06
0.02 0.03 0.02 0.02 0.03 0.02 0.01 0.02 0.03 0.04 0.05 0.04 0.02 0.01 0.00 0.01 0.01 0.00 0.00 0.00 0.00 0.00 0.00 0.01 0.00 0.00 0.00 0.01 0.01 0.01 0.01 0.01 0.01 0.02 0.02 0.02 0.03 0.04 0.05 0.05 0.05 0.05 0.04 0.04
0.02 0.02 0.02 0.02 0.01 0.01 0.01 0.01 0.02 0.04 0.05 0.06 0.04 0.02 0.00 0.00 0.01 0.01 0.00 0.00 0.00 0.00 0.00 0.00 0.00 0.00 0.00 0.00 0.01 0.01 0.01 0.01 0.01 0.01 0.01 0.02 0.03 0.04 0.05 0.05 0.04 0.03 0.03 0.03
0.03 0.02 0.03 0.02 0.01 0.01 0.01 0.01 0.02 0.03 0.04 0.06 0.06 0.04 0.02 0.01 0.01 0.01 0.01 0.01 0.01 0.00 0.00 0.00 0.00 0.00 0.00 0.00 0.01 0.01 0.01 0.01 0.01 0.01 0.01 0.01 0.01 0.02 0.02 0.02 0.02 0.02 0.02 0.02
0.03 0.02 0.02 0.03 0.03 0.03 0.03 0.02 0.02 0.05 0.06 0.04 0.04 0.04 0.03 0.02 0.02 0.01 0.01 0.01 0.01 0.01 0.01 0.01 0.01 0.00 0.00 0.00 0.01 0.01 0.00 0.01 0.01 0.01 0.01 0.01 0.01 0.02 0.02 0.02 0.02 0.02 0.03 0.02
0.01 0.01 0.02 0.02 0.02 0.03 0.03 0.03 0.02 0.02 0.02 0.04 0.03 0.03 0.03 0.02 0.01 0.01 0.01 0.01 0.00 0.01 0.01 0.01 0.01 0.01 0.00 0.00 0.00 0.00 0.00 0.00 0.01 0.01 0.01 0.01 0.01 0.02 0.02 0.03 0.03 0.03 0.03 0.03
0.00 0.01 0.01 0.01 0.01 0.01 0.03 0.04 0.03 0.03 0.04 0.04 0.04 0.04 0.03 0.01 0.01 0.01 0.01 0.01 0.01 0.01 0.01 0.01 0.01 0.01 0.00 0.00 0.00 0.00 0.00 0.00 0.01 0.01 0.01 0.02 0.02 0.03 0.03 0.03 0.03 0.02 0.02 0.02
0.00 0.00 0.01 0.01 0.01 0.02 0.02 0.04 0.05 0.05 0.05 0.05 0.08 0.07 0.03 0.02 0.02 0.02 0.02 0.02 0.02 0.01 0.01 0.01 0.01 0.00 0.00 0.00 0.00 0.00 0.00 0.00 0.00 0.01 0.01 0.02 0.02 0.02 0.02 0.03 0.03 0.02 0.02 0.02
0.00 0.00 0.00 0.00 0.00 0.02 0.03 0.02 0.03 0.05 0.03 0.03 0.05 0.05 0.04 0.03 0.03 0.03 0.02 0.03 0.02 0.02 0.01 0.01 0.01 0.01 0.01 0.00 0.00 0.00 0.00 0.00 0.00 0.00 0.01 0.02 0.02 0.01 0.01 0.01 0.02 0.02 0.02 0.02
0.00 0.00 0.00 0.00 0.01 0.02 0.01 0.01 0.03 0.04 0.05 0.03 0.04 0.04 0.05 0.04 0.03 0.03 0.03 0.03 0.03 0.02 0.02 0.02 0.02 0.02 0.01 0.00 0.00 0.00 0.00 0.00 0.00 0.00 0.00 0.01 0.01 0.01 0.01 0.01 0.01 0.01 0.01 0.01
0.00 0.00 0.01 0.01 0.01 0.01 0.01 0.01 0.02 0.03 0.05 0.04 0.04 0.04 0.04 0.03 0.04 0.04 0.03 0.03 0.02 0.02 0.02 0.02 0.02 0.02 0.02 0.01 0.00 0.00 0.00 0.00 0.00 0.00 0.00 0.00 0.00 0.00 0.00 0.00 0.00 0.00 0.00 0.00
0.00 0.00 0.00 0.00 0.01 0.01 0.01 0.01 0.01 0.04 0.06 0.04 0.04 0.04 0.03 0.03 0.04 0.04 0.03 0.02 0.02 0.02 0.02 0.02 0.01 0.01 0.02 0.03 0.02 0.01 0.00 0.00 0.00 0.00 0.01 0.01 0.00 0.00 0.00 0.00 0.00 0.00 0.00 0.00
0.00 0.00 0.00 0.00 0.01 0.02 0.01 0.01 0.03 0.05 0.03 0.03 0.03 0.03 0.03 0.03 0.03 0.03 0.02 0.02 0.02 0.02 0.01 0.01 0.01 0.01 0.01 0.02 0.02 0.01 0.01 0.01 0.00 0.00 0.01 0.01 0.00 0.00 0.00 0.00 0.00 0.00 0.00 0.00
0.01 0.01 0.01 0.01 0.02 0.03 0.02 0.02 0.03 0.02 0.02 0.01 0.01 0.01 0.02 0.02 0.02 0.02 0.02 0.01 0.02 0.02 0.01 0.01 0.01 0.01 0.01 0.01 0.01 0.01 0.01 0.01 0.00 0.01 0.01 0.01 0.01 0.01 0.01 0.01 0.01 0.00 0.00 0.00
0.01 0.00 0.01 0.01 0.01 0.01 0.01 0.01 0.01 0.01 0.01 0.01 0.01 0.01 0.01 0.01 0.02 0.02 0.01 0.01 0.01 0.01 0.01 0.01 0.01 0.00 0.01 0.01 0.01 0.01 0.01 0.01 0.01 0.01 0.02 0.02 0.02 0.02 0.02 0.02 0.01 0.01 0.00 0.00
0.00 0.00 0.00 0.01 0.01 0.00 0.01 0.00 0.00 0.00 0.01 0.01 0.01 0.01 0.01 0.01 0.01 0.01 0.01 0.01 0.01 0.01 0.01 0.01 0.01 0.01 0.01 0.01 0.01 0.01 0.01 0.01 0.02 0.02 0.02 0.03 0.03 0.03 0.03 0.02 0.02 0.01 0.01 0.01
0.01 0.01 0.01 0.01 0.00 0.00 0.00 0.00 0.00 0.00 0.00 0.00 0.01 0.01 0.01 0.01 0.01 0.00 0.01 0.01 0.01 0.01 0.01 0.01 0.01 0.01 0.02 0.02 0.01 0.01 0.02 0.02 0.02 0.03 0.03 0.03 0.03 0.02 0.02 0.02 0.01 0.01 0.01 0.01
MSLP
1015.23 1015.15 1014.96 1014.69 1014.36 1014.00 1013.63 1013.28 1012.95 1012.65 1012.40 1012.19 1012.04 1011.95 1011.90 1011.89 1011.89 1011.87 1011.78 1011.61 1011.32 1010.95 1010.50 1010.04 1009.64 1009.36 1009.27 1009.40 1009.76 1010.34 1011.09 1011.94 1012.82 1013.65 1014.40 1015.04 1015.55 1015.95 1016.27 1016.55 1016.81 1017.07 1017.35 1017.64
1015.01 1014.78 1014.44 1014.04 1013.62 1013.21 1012.85 1012.56 1012.34 1012.19 1012.10 1012.05 1012.05 1012.08 1012.13 1012.18 1012.22 1012.22 1012.15 1011.98 1011.70 1011.32 1010.85 1010.37 1009.91 1009.57 1009.40 1009.45 1009.74 1010.25 1010.94 1011.76 1012.61 1013.45 1014.21 1014.86 1015.39 1015.80 1016.14 1016.42 1016.67 1016.93 1017.20 1017.48
1014.95 1014.57 1014.09 1013.56 1013.04 1012.58 1012.22 1011.98 1011.84 1011.80 1011.83 1011.90 1011.99 1012.09 1012.18 1012.26 1012.31 1012.31 1012.24 1012.08 1011.81 1011.45 1011.01 1010.53 1010.08 1009.72 1009.52 1009.52 1009.75 1010.20 1010.85 1011.61 1012.44 1013.26 1014.01 1014.67 1015.22 1015.66 1016.01 1016.31 1016.59 1016.86 1017.13 1017.40
1015.10 1014.59 1013.98 1013.34 1012.74 1012.24 1011.87 1011.64 1011.55 1011.56 1011.64 1011.75 1011.86 1011.97 1012.05 1012.09 1012.11 1012.08 1012.00 1011.85 1011.61 1011.29 1010.91 1010.49 1010.09 1009.77 1009.59 1009.59 1009.80 1010.21 1010.80 1011.52 1012.31 1013.09 1013.83 1014.49 1015.05 1015.51 1015.90 1016.23 1016.54 1016.84 1017.13 1017.41
1015.42 1014.82 1014.12 1013.41 1012.76 1012.22 1011.82 1011.59 1011.50 1011.51 1011.57 1011.65 1011.71 1011.74 1011.74 1011.70 1011.65 1011.57 1011.46 1011.32 1011.13 1010.89 1010.60 1010.29 1010.00 1009.77 1009.64 1009.68 1009.89 1010.28 1010.83 1011.50 1012.24 1012.98 1013.69 1014.33 1014.89 1015.38 1015.80 1016.17 1016.52 1016.85 1017.17 1017.47
1015.80 1015.16 1014.44 1013.70 1013.03 1012.48 1012.07 1011.82 1011.70 1011.66 1011.65 1011.63 1011.57 1011.48 1011.34 1011.18 1011.01 1010.86 1010.73 1010.61 1010.48 1010.34 1010.18 1010.01 1009.86 1009.75 1009.73 1009.82 1010.05 1010.43 1010.95 1011.57 1012.25 1012.94 1013.61 1014.23 1014.78 1015.28 1015.72 1016.14 1016.53 1016.90 1017.26 1017.58
1016.12 1015.50 1014.80 1014.10 1013.45 1012.92 1012.52 1012.26 1012.09 1011.97 1011.86 1011.71 1011.51 1011.24 1010.95 1010.64 1010.37 1010.14 1009.98 1009.88 1009.83 1009.80 1009.79 1009.78 1009.78 1009.81 1009.89 1010.06 1010.33 1010.71 1011.19 1011.75 1012.37 1012.99 1013.61 1014.19 1014.73 1015.23 1015.69 1016.14 1016.57 1016.99 1017.38 1017.74
1016.28 1015.72 1015.09 1014.46 1013.89 1013.41 1013.05 1012.79 1012.59 1012.40 1012.18 1011.90 1011.54 1011.12 1010.67 1010.23 1009.85 1009.56 1009.38 1009.31 1009.34 1009.43 1009.56 1009.70 1009.86 1010.02 1010.21 1010.45 1010.74 1011.11 1011.56 1012.06 1012.61 1013.17 1013.72 1014.26 1014.77 1015.26 1015.74 1016.21 1016.67 1017.12 1017.55 1017.94
1016.22 1015.75 1015.22 1014.69 1014.22 1013.83 1013.53 1013.30 1013.09 1012.86 1012.57 1012.18 1011.70 1011.15 1010.57 1010.03 1009.57 1009.24 1009.06 1009.03 1009.13 1009.33 1009.58 1009.86 1010.15 1010.42 1010.69 1010.98 1011.30 1011.65 1012.05 1012.49 1012.97 1013.46 1013.95 1014.44 1014.92 1015.40 1015.88 1016.35 1016.83 1017.31 1017.76 1018.17
1015.99 1015.59 1015.16 1014.74 1014.37 1014.09 1013.87 1013.69 1013.51 1013.28 1012.95 1012.51 1011.95 1011.33 1010.69 1010.09 1009.59 1009.25 1009.09 1009.10 1009.26 1009.55 1009.90 1010.28 1010.65 1011.01 1011.33 1011.65 1011.97 1012.29 1012.65 1013.03 1013.44 1013.86 1014.30 1014.74 1015.19 1015.65 1016.12 1016.59 1017.08 1017.56 1018.02 1018.45
1015.67 1015.32 1014.95 1014.62 1014.35 1014.16 1014.03 1013.92 1013.79 1013.59 1013.27 1012.83 1012.27 1011.64 1010.98 1010.38 1009.89 1009.57 1009.43 1009.48 1009.70 1010.04 1010.45 1010.89 1011.32 1011.71 1012.07 1012.39 1012.69 1013.00 1013.31 1013.64 1013.99 1014.37 1014.75 1015.16 1015.58 1016.01 1016.46 1016.93 1017.40 1017.87 1018.33 1018.75
1015.38 1015.04 1014.70 1014.41 1014.21 1014.09 1014.03 1013.99 1013.92 1013.77 1013.50 1013.10 1012.59 1011.99 1011.38 1010.81 1010.36 1010.08 1009.98 1010.06 1010.31 1010.68 1011.13 1011.59 1012.03 1012.44 1012.80 1013.12 1013.40 1013.68 1013.96 1014.26 1014.57 1014.91 1015.27 1015.65 1016.04 1016.45 1016.89 1017.33 1017.78 1018.23 1018.67 1019.06
1015.25 1014.86 1014.50 1014.22 1014.03 1013.93 1013.92 1013.93 1013.91 1013.82 1013.62 1013.29 1012.85 1012.32 1011.78 1011.28 1010.89 1010.65 1010.59 1010.70 1010.96 1011.34 1011.78 1012.24 1012.68 1013.08 1013.43 1013.74 1014.02 1014.28 1014.55 1014.83 1015.14 1015.46 1015.81 1016.17 1016.55 1016.95 1017.36 1017.78 1018.20 1018.62 1019.02 1019.38
1015.32 1014.86 1014.44 1014.11 1013.89 1013.79 1013.78 1013.81 1013.82 1013.78 1013.64 1013.38 1013.02 1012.58 1012.12 1011.70 1011.37 1011.17 1011.13 1011.25 1011.51 1011.87 1012.29 1012.73 1013.16 1013.54 1013.89 1014.19 1014.47 1014.74 1015.02 1015.31 1015.62 1015.96 1016.31 1016.68 1017.05 1017.44 1017.83 1018.22 1018.62 1019.00 1019.36 1019.69
1015.60 1015.05 1014.56 1014.16 1013.88 1013.73 1013.69 1013.70 1013.73 1013.71 1013.61 1013.42 1013.12 1012.76 1012.37 1012.01 1011.73 1011.57 1011.54 1011.65 1011.89 1012.22 1012.61 1013.02 1013.42 1013.79 1014.13 1014.44 1014.74 1015.03 1015.34 1015.66 1016.00 1016.36 1016.73 1017.11 1017.49 1017.88 1018.26 1018.63 1019.00 1019.35 1019.67 1019.96
1016.05 1015.42 1014.85 1014.37 1014.02 1013.81 1013.71 1013.69 1013.70 1013.68 1013.61 1013.45 1013.20 1012.89 1012.56 1012.24 1011.99 1011.84 1011.80 1011.89 1012.10 1012.39 1012.73 1013.10 1013.48 1013.84 1014.18 1014.51 1014.83 1015.16 1015.50 1015.86 1016.24 1016.63 1017.04 1017.44 1017.84 1018.22 1018.60 1018.96 1019.30 1019.62 1019.92 1020.17
1016.59 1015.91 1015.28 1014.75 1014.34 1014.06 1013.91 1013.84 1013.81 1013.77 1013.69 1013.54 1013.32 1013.04 1012.74 1012.44 1012.20 1012.04 1011.99 1012.04 1012.20 1012.43 1012.73 1013.06 1013.41 1013.76 1014.10 1014.44 1014.79 1015.15 1015.53 1015.93 1016.35 1016.78 1017.21 1017.63 1018.05 1018.45 1018.82 1019.18 1019.51 1019.81 1020.08 1020.31
1017.16 1016.48 1015.84 1015.27 1014.82 1014.50 1014.29 1014.18 1014.11 1014.04 1013.94 1013.78 1013.56 1013.29 1012.99 1012.70 1012.45 1012.27 1012.18 1012.19 1012.29 1012.48 1012.72 1013.01 1013.32 1013.65 1013.98 1014.33 1014.69 1015.08 1015.48 1015.90 1016.35 1016.80 1017.25 1017.69 1018.12 1018.53 1018.91 1019.26 1019.59 1019.88 1020.14 1020.36
1017.74 1017.09 1016.47 1015.91 1015.45 1015.11 1014.87 1014.72 1014.61 1014.50 1014.38 1014.20 1013.97 1013.70 1013.39 1013.09 1012.82 1012.62 1012.49 1012.45 1012.50 1012.63 1012.82 1013.05 1013.32 1013.62 1013.93 1014.27 1014.62 1015.00 1015.40 1015.83 1016.27 1016.73 1017.18 1017.63 1018.06 1018.48 1018.86 1019.22 1019.55 1019.84 1020.10 1020.31
1018.32 1017.73 1017.16 1016.64 1016.21 1015.86 1015.61 1015.43 1015.29 1015.16 1015.00 1014.80 1014.55 1014.26 1013.94 1013.63 1013.34 1013.11 1012.95 1012.87 1012.87 1012.94 1013.08 1013.27 1013.49 1013.74 1014.01 1014.31 1014.63 1014.98 1015.36 1015.75 1016.17 1016.61 1017.05 1017.48 1017.91 1018.32 1018.70 1019.07 1019.39 1019.69 1019.94 1020.16
1018.91 1018.41 1017.91 1017.45 1017.05 1016.72 1016.47 1016.27 1016.10 1015.93 1015.74 1015.51 1015.24 1014.93 1014.60 1014.27 1013.97 1013.73 1013.54 1013.43 1013.40 1013.43 1013.53 1013.67 1013.84 1014.04 1014.26 1014.50 1014.77 1015.06 1015.38 1015.72 1016.09 1016.48 1016.88 1017.29 1017.69 1018.09 1018.47 1018.82 1019.15 1019.44 1019.70 1019.91
1019.54 1019.12 1018.69 1018.29 1017.93 1017.63 1017.37 1017.16 1016.96 1016.75 1016.52 1016.25 1015.95 1015.62 1015.27 1014.94 1014.64 1014.38 1014.19 1014.08 1014.03 1014.04 1014.10 1014.20 1014.33 1014.48 1014.64 1014.82 1015.02 1015.24 1015.48 1015.75 1016.05 1016.37 1016.72 1017.08 1017.45 1017.81 1018.17 1018.52 1018.84 1019.13 1019.37 1019.58
1020.19 1019.84 1019.48 1019.13 1018.81 1018.51 1018.25 1018.01 1017.76 1017.51 1017.22 1016.91 1016.57 1016.21 1015.85 1015.51 1015.21 1014.97 1014.79 1014.69 1014.64 1014.66 1014.71 1014.79 1014.89 1015.00 1015.12 1015.23 1015.36 1015.50 1015.66 1015.84 1016.06 1016.30 1016.58 1016.88 1017.20 1017.53 1017.86 1018.18 1018.48 1018.75 1018.99 1019.18
1020.80 1020.51 1020.20 1019.89 1019.60 1019.31 1019.03 1018.74 1018.45 1018.12 1017.78 1017.40 1017.01 1016.62 1016.24 1015.90 1015.61 1015.39 1015.24 1015.16 1015.15 1015.19 1015.26 1015.35 1015.44 1015.53 1015.60 1015.67 1015.73 1015.80 1015.88 1015.99 1016.12 1016.29 1016.49 1016.72 1016.97 1017.25 1017.54 1017.82 1018.09 1018.34 1018.55 1018.73
1021.31 1021.06 1020.80 1020.52 1020.24 1019.95 1019.64 1019.31 1018.94 1018.55 1018.12 1017.68 1017.23 1016.79 1016.39 1016.04 1015.77 1015.58 1015.47 1015.44 1015.47 1015.55 1015.66 1015.78 1015.89 1015.98 1016.04 1016.08 1016.10 1016.11 1016.13 1016.16 1016.22 1016.31 1016.43 1016.59 1016.78 1017.00 1017.23 1017.46 1017.69 1017.90 1018.08 1018.22
1021.63 1021.42 1021.20 1020.96 1020.69 1020.40 1020.06 1019.67 1019.24 1018.77 1018.26 1017.74 1017.22 1016.74 1016.31 1015.96 1015.70 1015.54 1015.48 1015.50 1015.60 1015.74 1015.90 1016.06 1016.21 1016.32 1016.39 1016.42 1016.42 1016.40 1016.37 1016.34 1016.34 1016.36 1016.41 1016.50 1016.63 1016.77 1016.94 1017.12 1017.29 1017.45 1017.58 1017.69
Thickness
5486 5481 5480 5488 5497 5504 5509 5514 5519 5529 5539 5545 5549 5558 5569 5580 5588 5594 5601 5609 5620 5631 5642 5650 5657 5663 5668 5671 5674 5676 5679 5680 5681 5680 5678 5677 5677 5678 5679 5680 5680 5680 5679 5678
5477 5478 5488 5495 5500 5505 5507 5510 5515 5525 5536 5541 5544 5553 5565 5575 5583 5594 5601 5607 5616 5625 5634 5642 5649 5655 5660 5664 5668 5671 5673 5675 5677 5677 5676 5675 5673 5672 5673 5673 5673 5674 5674 5673
5475 5482 5493 5497 5498 5501 5503 5506 5513 5520 5527 5534 5539 5545 5557 5571 5580 5589 5598 5606 5614 5621 5628 5635 5642 5649 5654 5658 5662 5665 5667 5670 5671 5671 5669 5667 5665 5665 5664 5665 5666 5667 5667 5667
5478 5485 5490 5493 5496 5500 5499 5510 5517 5519 5516 5517 5528 5529 5548 5562 5572 5583 5592 5599 5609 5617 5624 5631 5637 5643 5648 5653 5657 5660 5662 5663 5665 5665 5664 5663 5662 5661 5661 5661 5661 5660 5660 5659
5475 5482 5485 5489 5495 5500 5501 5511 5514 5514 5511 5511 5520 5524 5542 5556 5567 5580 5588 5597 5606 5613 5619 5626 5633 5638 5642 5645 5648 5652 5654 5656 5658 5658 5658 5657 5657 5657 5655 5654 5653 5652 5652 5652
5479 5484 5486 5489 5495 5500 5503 5504 5503 5501 5501 5501 5516 5522 5536 5550 5568 5579 5587 5593 5600 5607 5613 5619 5624 5629 5632 5636 5639 5642 5644 5646 5648 5650 5650 5650 5649 5648 5646 5645 5644 5644 5643 5643
5473 5481 5487 5490 5491 5495 5496 5488 5480 5483 5484 5497 5516 5521 5537 5557 5569 5576 5582 5588 5593 5599 5604 5609 5614 5618 5622 5626 5629 5632 5634 5636 5638 5640 5641 5642 5642 5641 5640 5639 5638 5636 5635 5634
5467 5469 5483 5488 5490 5489 5491 5488 5479 5481 5484 5495 5512 5518 5537 5556 5565 5572 5577 5582 5586 5591 5596 5601 5605 5609 5612 5616 5619 5622 5624 5625 5627 5629 5631 5632 5633 5632 5631 5631 5630 5629 5628 5627
5471 5472 5487 5490 5492 5492 5489 5486 5489 5485 5486 5493 5504 5519 5537 5554 5558 5564 5567 5572 5575 5580 5585 5590 5594 5598 5601 5605 5609 5611 5613 5615 5616 5618 5620 5621 5622 5622 5622 5622 5621 5619 5618 5617
5479 5476 5485 5490 5493 5492 5492 5491 5484 5482 5485 5490 5502 5513 5524 5538 5546 5553 5558 5561 5565 5570 5573 5578 5582 5585 5589 5592 5596 5599 5602 5604 5606 5607 5609 5611 5611 5611 5611 5610 5609 5608 5606 5605
5483 5477 5480 5486 5487 5487 5489 5491 5490 5483 5484 5485 5492 5509 5529 5531 5536 5541 5545 5549 5554 5558 5561 5565 5569 5573 5576 5579 5583 5586 5588 5591 5593 5595 5597 5597 5598 5598 5598 5597 5597 5596 5594 5592
5485 5478 5474 5483 5493 5496 5495 5495 5491 5486 5486 5484 5485 5505 5527 5526 5529 5533 5536 5540 5543 5546 5549 5552 5556 5559 5563 5566 5570 5573 5576 5579 5581 5583 5584 5584 5584 5585 5584 5584 5583 5582 5581 5579
5490 5481 5473 5483 5489 5493 5495 5498 5497 5492 5485 5481 5486 5504 5522 5521 5522 5524 5526 5529 5532 5536 5539 5541 5544 5547 5550 5553 5557 5561 5564 5566 5569 5570 5571 5571 5571 5571 5571 5570 5570 5569 5568 5566
5495 5483 5479 5485 5489 5491 5494 5498 5498 5492 5482 5485 5493 5503 5512 5512 5511 5512 5515 5518 5520 5525 5528 5530 5533 5535 5539 5542 5545 5549 5551 5554 5556 5557 5558 5558 5559 5559 5559 5557 5556 5556 5555 5553
5488 5485 5487 5489 5494 5494 5496 5498 5498 5495 5494 5489 5496 5499 5505 5504 5503 5505 5507 5510 5513 5516 5519 5521 5523 5525 5528 5531 5534 5538 5540 5543 5545 5546 5547 5547 5547 5547 5546 5545 5544 5543 5542 5541
5481 5485 5489 5491 5497 5496 5495 5498 5497 5497 5497 5495 5494 5496 5500 5499 5499 5500 5501 5503 5505 5508 5510 5511 5513 5515 5518 5521 5524 5527 5530 5532 5534 5536 5536 5536 5536 5535 5535 5534 5533 5531 5530 5529
5475 5480 5482 5481 5489 5492 5488 5492 5494 5494 5494 5494 5491 5492 5494 5494 5494 5493 5493 5495 5496 5497 5499 5501 5503 5506 5509 5512 5515 5518 5521 5523 5524 5526 5526 5526 5526 5525 5524 5523 5521 5519 5518 5517
5472 5474 5473 5475 5482 5480 5488 5491 5492 5490 5488 5488 5487 5485 5484 5483 5483 5482 5483 5484 5485 5487 5489 5491 5493 5496 5500 5503 5506 5509 5511 5513 5514 5515 5516 5516 5516 5515 5513 5511 5510 5508 5506 5505
5470 5472 5469 5466 5467 5475 5486 5486 5485 5483 5480 5476 5476 5476 5477 5478 5479 5476 5475 5475 5475 5477 5480 5482 5485 5487 5490 5493 5497 5499 5500 5502 5504 5505 5506 5507 5506 5505 5503 5501 5499 5498 5496 5495
5468 5466 5463 5462 5465 5466 5479 5481 5480 5478 5472 5468 5466 5465 5466 5470 5468 5469 5467 5467 5468 5470 5472 5474 5476 5478 5481 5484 5487 5489 5490 5492 5494 5496 5497 5497 5497 5496 5494 5492 5490 5488 5486 5484
5463 5459 5455 5455 5457 5466 5471 5472 5475 5466 5464 5459 5457 5456 5456 5454 5452 5454 5456 5458 5460 5461 5464 5466 5467 5469 5471 5474 5477 5479 5480 5482 5484 5486 5487 5487 5486 5485 5484 5482 5480 5478 5476 5473
5461 5457 5455 5452 5452 5458 5465 5464 5459 5455 5451 5449 5448 5446 5445 5445 5445 5446 5447 5449 5450 5452 5455 5456 5457 5459 5461 5464 5466 5468 5470 5472 5473 5475 5476 5476 5475 5475 5474 5472 5469 5467 5465 5463
5459 5459 5455 5455 5459 5458 5455 5452 5448 5445 5442 5440 5438 5437 5436 5436 5437 5438 5439 5440 5442 5444 5445 5446 5447 5449 5451 5453 5455 5457 5460 5461 5463 5464 5465 5465 5465 5464 5464 5462 5460 5457 5455 5454
5457 5457 5452 5451 5452 5450 5447 5443 5440 5438 5435 5433 5431 5429 5428 5427 5428 5429 5431 5432 5433 5435 5436 5437 5438 5440 5442 5444 5446 5448 5449 5451 5453 5453 5454 5454 5455 5454 5453 5452 5451 5449 5448 5446
5453 5452 5447 5446 5445 5442 5441 5436 5433 5430 5427 5425 5423 5421 5419 5419 5420 5420 5421 5423 5424 5426 5427 5428 5429 5432 5433 5435 5436 5438 5440 5441 5442 5443 5444 5444 5445 5444 5444 5443 5443 5442 5442 5441
5445 5444 5441 5441 5438 5433 5431 5430 5425 5421 5418 5416 5413 5413 5412 5410 5411 5412 5412 5413 5415 5416 5418 5419 5421 5423 5424 5426 5427 5428 5430 5431 5432 5433 5434 5434 5435 5435 5435 5434 5434 5435 5434 5434